| time (UTC) | temp F | wind direction | speed MPH | gust MPH | rain 1hr in | rain 24hr in | rain mn in | humidity % | barometer mb |
| 20260906200054 | 94 | 291 | 0.0 | 2.0 | 0.00 | 0.00 | 0.00 | 55 | 1012.5 |
| 20260906194601 | 93 | 0 | 0.0 | 1.0 | 0.00 | 0.00 | 0.00 | 56 | 1012.7 |
| 20260906193104 | 92 | 0 | 0.0 | 3.0 | 0.00 | 0.00 | 0.00 | 58 | 1012.7 |
| 20260906191607 | 92 | 0 | 0.0 | 2.0 | 0.00 | 0.00 | 0.00 | 57 | 1012.7 |
| 20260906190059 | 92 | 0 | 0.0 | 1.0 | 0.00 | 0.00 | 0.00 | 58 | 1012.9 |
| 20260906184552 | 92 | 0 | 0.0 | 2.0 | 0.00 | 0.00 | 0.00 | 57 | 1013.0 |
| 20260906183056 | 90 | 0 | 0.0 | 1.0 | 0.00 | 0.00 | 0.00 | 60 | 1013.1 |
| 20260906181557 | 91 | 0 | 0.0 | 1.0 | 0.00 | 0.00 | 0.00 | 62 | 1013.4 |
| 20260906180057 | 91 | 0 | 0.0 | 1.0 | 0.00 | 0.00 | 0.00 | 60 | 1013.7 |
| 20260906174606 | 91 | 0 | 0.0 | 1.0 | 0.00 | 0.00 | 0.00 | 60 | 1013.9 |
| 20260906173049 | 92 | 0 | 1.0 | 3.0 | 0.00 | 0.00 | 0.00 | 61 | 1014.1 |
| 20260906171548 | 91 | 113 | 1.0 | 2.0 | 0.00 | 0.00 | 0.00 | 63 | 1014.4 |
| 20260906170058 | 91 | 0 | 0.0 | 1.0 | 0.00 | 0.00 | 0.00 | 66 | 1014.7 |
| 20260906164554 | 89 | 344 | 0.0 | 1.0 | 0.00 | 0.00 | 0.00 | 66 | 1014.8 |
| 20260906163052 | 89 | 0 | 0.0 | 1.0 | 0.00 | 0.00 | 0.00 | 68 | 1014.8 |
| 20260906161549 | 88 | 0 | 0.0 | 1.0 | 0.00 | 0.00 | 0.00 | 69 | 1014.7 |
| 20260906160055 | 88 | 6 | 0.0 | 2.0 | 0.00 | 0.00 | 0.00 | 70 | 1014.9 |
| 20260906133053 | 81 | 0 | 0.0 | 1.0 | 0.00 | 0.00 | 0.00 | 86 | 1013.7 |
| 20260906131556 | 81 | 0 | 0.0 | 0.0 | 0.00 | 0.00 | 0.00 | 86 | 1013.5 |
| 20260906130103 | 80 | 0 | 0.0 | 0.0 | 0.00 | 0.00 | 0.00 | 86 | 1013.5 |
| 20260906124550 | 80 | 0 | 0.0 | 0.0 | 0.00 | 0.00 | 0.00 | 86 | 1013.2 |
| 20260906123058 | 79 | 0 | 0.0 | 0.0 | 0.00 | 0.00 | 0.00 | 86 | 1013.1 |
| 20260906121555 | 79 | 0 | 0.0 | 0.0 | 0.00 | 0.00 | 0.00 | 86 | 1013.0 |
| 20260906120052 | 79 | 0 | 0.0 | 0.0 | 0.00 | 0.00 | 0.00 | 85 | 1012.5 |
| 20260906114617 | 80 | 0 | 0.0 | 0.0 | 0.00 | 0.00 | 0.00 | 85 | 1012.2 |
| 20260906113057 | 80 | 0 | 0.0 | 0.0 | 0.00 | 0.00 | 0.00 | 85 | 1012.0 |
| 20260906111619 | 80 | 0 | 0.0 | 0.0 | 0.00 | 0.00 | 0.00 | 84 | 1011.8 |
| 20260906110052 | 80 | 0 | 0.0 | 0.0 | 0.00 | 0.00 | 0.00 | 83 | 1011.7 |
| 20260906104548 | 81 | 0 | 0.0 | 0.0 | 0.00 | 0.00 | 0.00 | 83 | 1011.5 |
| 20260906103057 | 81 | 0 | 0.0 | 0.0 | 0.00 | 0.00 | 0.00 | 82 | 1011.7 |
| 20260906101553 | 81 | 0 | 0.0 | 0.0 | 0.00 | 0.00 | 0.00 | 82 | 1011.7 |
| 20260906100053 | 81 | 0 | 0.0 | 0.0 | 0.00 | 0.00 | 0.00 | 82 | 1011.6 |
| 20260906094545 | 81 | 0 | 0.0 | 0.0 | 0.00 | 0.00 | 0.00 | 81 | 1011.6 |
| 20260906093103 | 81 | 0 | 0.0 | 0.0 | 0.00 | 0.00 | 0.00 | 81 | 1011.6 |
| 20260906091555 | 81 | 0 | 0.0 | 0.0 | 0.00 | 0.00 | 0.00 | 80 | 1011.7 |
| 20260906090104 | 81 | 0 | 0.0 | 0.0 | 0.00 | 0.00 | 0.00 | 80 | 1011.6 |
| 20260906084555 | 81 | 0 | 0.0 | 0.0 | 0.00 | 0.00 | 0.00 | 80 | 1011.5 |
| 20260906083055 | 82 | 0 | 0.0 | 1.0 | 0.00 | 0.00 | 0.00 | 79 | 1011.5 |
| 20260906081558 | 82 | 0 | 0.0 | 0.0 | 0.00 | 0.00 | 0.00 | 79 | 1011.7 |
| 20260906080055 | 82 | 282 | 0.0 | 0.0 | 0.00 | 0.00 | 0.00 | 78 | 1011.8 |
| 20260906074549 | 82 | 0 | 0.0 | 1.0 | 0.00 | 0.00 | 0.00 | 78 | 1012.1 |
| 20260906073055 | 83 | 0 | 0.0 | 1.0 | 0.00 | 0.00 | 0.00 | 77 | 1012.1 |
| 20260906071555 | 83 | 0 | 0.0 | 1.0 | 0.00 | 0.00 | 0.00 | 76 | 1012.2 |
| 20260906070113 | 83 | 0 | 0.0 | 3.0 | 0.00 | 0.00 | 0.00 | 76 | 1012.3 |
| 20260906064547 | 84 | 0 | 0.0 | 1.0 | 0.00 | 0.00 | 0.00 | 75 | 1012.5 |
| 20260906063056 | 84 | 338 | 0.0 | 1.0 | 0.00 | 0.00 | 0.00 | 74 | 1012.8 |
| 20260906061618 | 84 | 0 | 0.0 | 1.0 | 0.00 | 0.00 | 0.00 | 74 | 1012.9 |
| 20260906060057 | 85 | 0 | 0.0 | 1.0 | 0.00 | 0.00 | 0.00 | 74 | 1012.9 |
| 20260906054548 | 85 | 0 | 0.0 | 1.0 | 0.00 | 0.00 | 0.00 | 73 | 1012.9 |
| 20260906053051 | 85 | 0 | 0.0 | 1.0 | 0.00 | 0.00 | 0.00 | 73 | 1012.4 |
| 20260906051554 | 85 | 0 | 0.0 | 1.0 | 0.00 | 0.00 | 0.00 | 72 | 1012.8 |
| 20260906050109 | 86 | 0 | 0.0 | 1.0 | 0.00 | 0.00 | 0.00 | 72 | 1012.7 |
| 20260906044551 | 86 | 0 | 0.0 | 1.0 | 0.00 | 0.00 | 0.00 | 71 | 1012.7 |
| 20260906043108 | 87 | 0 | 0.0 | 1.0 | 0.00 | 0.00 | 0.00 | 70 | 1012.9 |
| 20260906041554 | 87 | 0 | 0.0 | 1.0 | 0.00 | 0.00 | 0.00 | 69 | 1012.7 |
| 20260906040110 | 87 | 0 | 0.0 | 1.0 | 0.00 | 0.00 | 0.00 | 69 | 1012.7 |
| 20260906034558 | 87 | 259 | 0.0 | 1.0 | 0.00 | 0.00 | 0.00 | 68 | 1012.4 |
| 20260906033052 | 88 | 0 | 0.0 | 1.0 | 0.00 | 0.00 | 0.00 | 67 | 1012.6 |
| 20260906031556 | 88 | 0 | 0.0 | 1.0 | 0.00 | 0.00 | 0.00 | 67 | 1012.4 |
| 20260906030108 | 88 | 0 | 0.0 | 1.0 | 0.00 | 0.00 | 0.00 | 66 | 1012.3 |
| 20260906024556 | 88 | 0 | 0.0 | 1.0 | 0.00 | 0.00 | 0.00 | 64 | 1011.8 |
| 20260906023115 | 89 | 0 | 0.0 | 1.0 | 0.00 | 0.00 | 0.00 | 63 | 1011.4 |
| 20260906021556 | 89 | 0 | 0.0 | 1.0 | 0.00 | 0.00 | 0.00 | 62 | 1010.7 |
| 20260906020056 | 90 | 0 | 0.0 | 1.0 | 0.00 | 0.00 | 0.00 | 60 | 1010.6 |
| 20260906014606 | 90 | 34 | 0.0 | 1.0 | 0.00 | 0.00 | 0.00 | 59 | 1010.5 |
| 20260906013049 | 91 | 0 | 0.0 | 0.0 | 0.00 | 0.00 | 0.00 | 57 | 1010.7 |
| 20260906011555 | 91 | 0 | 0.0 | 1.0 | 0.00 | 0.00 | 0.00 | 56 | 1010.3 |
| 20260906010058 | 91 | 0 | 0.0 | 1.0 | 0.00 | 0.00 | 0.00 | 55 | 1010.2 |
| 20260906004607 | 92 | 0 | 0.0 | 1.0 | 0.00 | 0.00 | 0.00 | 57 | 1010.2 |
| 20260906003053 | 95 | 129 | 0.0 | 2.0 | 0.00 | 0.00 | 0.00 | 52 | 1010.2 |
| 20260906001546 | 96 | 0 | 0.0 | 1.0 | 0.00 | 0.00 | 0.00 | 49 | 1009.9 |
| 20260906000107 | 97 | 88 | 0.0 | 1.0 | 0.00 | 0.00 | 0.00 | 46 | 1009.9 |
| 20260905234556 | 97 | 0 | 0.0 | 0.0 | 0.00 | 0.00 | 0.00 | 46 | 1009.7 |
| 20260905233051 | 98 | 0 | 0.0 | 0.0 | 0.00 | 0.00 | 0.00 | 44 | 1009.7 |
| 20260905231557 | 98 | 0 | 0.0 | 1.0 | 0.00 | 0.00 | 0.00 | 44 | 1009.8 |
| 20260905230058 | 98 | 0 | 0.0 | 0.0 | 0.00 | 0.00 | 0.00 | 44 | 1009.9 |
| 20260905224601 | 98 | 0 | 0.0 | 0.0 | 0.00 | 0.00 | 0.00 | 44 | 1009.9 |
| 20260905223056 | 98 | 0 | 0.0 | 0.0 | 0.00 | 0.00 | 0.00 | 45 | 1009.8 |
| 20260905221553 | 98 | 0 | 0.0 | 1.0 | 0.00 | 0.00 | 0.00 | 44 | 1010.1 |
| 20260905220058 | 99 | 0 | 0.0 | 1.0 | 0.00 | 0.00 | 0.00 | 44 | 1010.2 |
| 20260905214557 | 99 | 122 | 0.0 | 1.0 | 0.00 | 0.00 | 0.00 | 43 | 1010.2 |
| 20260905213056 | 98 | 0 | 0.0 | 1.0 | 0.00 | 0.00 | 0.00 | 42 | 1009.6 |
| 20260905211554 | 97 | 0 | 0.0 | 1.0 | 0.00 | 0.00 | 0.00 | 44 | 1010.3 |
| 20260905210050 | 98 | 0 | 0.0 | 2.0 | 0.00 | 0.00 | 0.00 | 42 | 1010.5 |
| 20260905204556 | 99 | 105 | 0.0 | 2.0 | 0.00 | 0.00 | 0.00 | 41 | 1010.8 |